DW3637 Weather Reports


time (UTC)temp
F
wind
direction
speed
knots
gust
knots
rain 1hr
in
rain 24hr
in
rain mn
in
humidity
%
barometer
mb
20260510224516 68 0.0 1.7 0.00 0.01 0.01 65 1011.6
20260510223515 68 0.0 0.9 0.00 0.02 0.01 65 1011.6
20260510222515 68 0.0 1.7 0.00 0.02 0.01 64 1011.5
20260510221517 68 315 1.7 5.2 0.00 0.03 0.01 62 1011.4
20260510220550 68 248 1.7 7.8 0.00 0.04 0.01 61 1011.3
20260510215518 69 248 2.6 6.1 0.00 0.06 0.01 61 1011.2
20260510214537 69 293 2.6 6.1 0.00 0.06 0.01 59 1011.2
20260510213557 70 293 2.6 6.1 0.00 0.07 0.01 58 1011.0
20260510212518 71 338 1.7 6.1 0.00 0.07 0.01 59 1010.8
20260510211517 69 315 1.7 5.2 0.00 0.08 0.01 64 1010.6
20260510210522 69 270 1.7 6.1 0.00 0.09 0.01 63 1010.7
20260510205538 68 270 1.7 4.3 0.00 0.10 0.01 64 1010.5
20260510204517 69 338 0.9 3.5 0.00 0.11 0.01 70 1010.5
20260510203538 69 270 0.9 3.5 0.00 0.12 0.01 68 1010.3
20260510202517 70 270 0.9 3.5 0.00 0.13 0.01 70 1010.1
20260510201517 70 338 0.9 2.6 0.00 0.14 0.01 69 1010.1
20260510200517 70 270 0.9 2.6 0.01 0.16 0.01 69 1009.9
20260510195537 69 270 1.7 4.3 0.01 0.17 0.01 69 1010.0
20260510194521 69 270 2.6 5.2 0.01 0.18 0.01 68 1010.1
20260510193517 69 248 2.6 6.1 0.01 0.19 0.01 69 1010.2
20260510192517 68 270 2.6 6.1 0.01 0.20 0.01 71 1010.3
20260510191517 68 248 1.7 3.5 0.01 0.20 0.01 72 1010.2
20260510190517 69 225 1.7 5.2 0.00 0.20 0.00 71 1010.4
20260510185518 70 248 2.6 6.1 0.00 0.20 0.00 66 1010.4
20260510184518 71 225 4.3 7.0 0.00 0.20 0.00 63 1010.4
20260510183517 72 248 3.5 8.7 0.00 0.20 0.00 62 1010.5
20260510182517 72 225 1.7 4.3 0.00 0.20 0.00 64 1010.5
20260510181517 71 248 0.9 4.3 0.00 0.20 0.00 65 1010.5
20260510180517 70 248 2.6 5.2 0.00 0.20 0.00 66 1010.5
20260510175519 70 248 3.5 7.0 0.00 0.20 0.00 65 1010.7
20260510174517 71 248 1.7 4.3 0.00 0.20 0.00 63 1010.7
20260510173517 70 248 2.6 7.0 0.00 0.20 0.00 65 1010.7
20260510172537 70 248 3.5 7.8 0.00 0.20 0.00 66 1011.0
20260510171517 70 158 1.7 5.2 0.00 0.20 0.00 68 1011.0
20260510170517 68 248 1.7 6.1 0.00 0.21 0.00 68 1011.1
20260510165517 68 248 3.5 6.1 0.00 0.22 0.00 68 1011.3
20260510164517 68 248 2.6 8.7 0.00 0.22 0.00 69 1011.4
20260510163517 68 248 3.5 7.8 0.00 0.23 0.00 69 1011.4
20260510162517 67 248 2.6 5.2 0.00 0.23 0.00 69 1011.5
20260510161526 67 248 2.6 7.0 0.00 0.24 0.00 73 1011.5
20260510160517 66 248 2.6 7.0 0.00 0.24 0.00 72 1011.7
20260510155519 65 248 2.6 5.2 0.00 0.24 0.00 74 1011.8
20260510154517 64 248 3.5 7.0 0.00 0.24 0.00 76 1012.1
20260510153517 64 248 2.6 7.0 0.00 0.25 0.00 77 1012.0
20260510152517 64 248 1.7 7.0 0.00 0.25 0.00 78 1012.1
20260510151517 63 225 1.7 6.1 0.00 0.25 0.00 77 1012.2
20260510150517 62 270 1.7 5.2 0.00 0.25 0.00 79 1012.1
20260510145519 62 248 1.7 4.3 0.00 0.25 0.00 77 1012.0
20260510144517 62 248 1.7 6.1 0.00 0.25 0.00 81 1012.1
20260510143517 60 248 1.7 4.3 0.00 0.25 0.00 84 1012.1
20260510142516 60 248 1.7 6.1 0.00 0.26 0.00 83 1012.3
20260510141517 59 248 0.9 4.3 0.00 0.26 0.00 86 1012.1
20260510140516 58 248 1.7 5.2 0.00 0.26 0.00 86 1012.1
20260510135519 57 248 0.9 4.3 0.00 0.26 0.00 90 1012.1
20260510134517 56 0.0 2.6 0.00 0.26 0.00 91 1012.2
20260510133516 55 225 0.9 2.6 0.00 0.27 0.00 92 1012.1
20260510132516 55 0.0 1.7 0.00 0.27 0.00 92 1012.2
20260510131517 55 0.0 1.7 0.00 0.27 0.00 93 1012.2
20260510130517 55 248 0.9 2.6 0.00 0.27 0.00 93 1012.1
20260510125552 55 0.0 0.9 0.00 0.27 0.00 93 1012.1
20260510124517 54 0.0 0.9 0.00 0.27 0.00 94 1012.0
20260510123519 54 0.0 0.9 0.00 0.27 0.00 94 1011.9
20260510122517 54 0.0 2.6 0.00 0.27 0.00 94 1011.9
20260510121516 54 248 0.9 2.6 0.00 0.27 0.00 94 1011.9
20260510120525 54 0.0 0.9 0.00 0.28 0.00 95 1011.9
20260510115519 54 0.0 2.6 0.00 0.28 0.00 95 1011.9
20260510114517 54 0.0 2.6 0.00 0.28 0.00 95 1011.7
20260510113524 53 0.0 1.7 0.00 0.29 0.00 96 1011.8
20260510112516 53 0.0 0.9 0.00 0.29 0.00 96 1011.8
20260510111537 53 0.0 0.9 0.00 0.29 0.00 96 1011.7
20260510110517 53 0.0 2.6 0.00 0.29 0.00 96 1011.6
20260510105519 53 0.0 2.6 0.00 0.29 0.00 96 1011.5
20260510104536 53 0.0 0.9 0.00 0.30 0.00 96 1011.4
20260510103516 53 248 0.9 2.6 0.00 0.30 0.00 96 1011.3
20260510102517 53 0.0 1.7 0.00 0.31 0.00 97 1011.3
20260510101519 52 248 0.9 4.3 0.00 0.31 0.00 97 1011.0
20260510100516 52 0.0 2.6 0.00 0.32 0.00 97 1010.7
20260510095539 52 0.0 0.9 0.00 0.33 0.00 97 1010.4
20260510094517 52 225 0.9 1.7 0.00 0.33 0.00 97 1010.5
20260510093516 52 0.0 0.9 0.00 0.33 0.00 97 1010.7
20260510092516 52 0.0 1.7 0.00 0.34 0.00 97 1010.8
20260510091557 52 0.0 2.6 0.00 0.35 0.00 97 1010.6
20260510090536 52 0.0 2.6 0.00 0.36 0.00 96 1010.6
20260510085525 52 248 0.9 3.5 0.00 0.36 0.00 97 1010.8
20260510084517 53 248 0.9 2.6 0.00 0.36 0.00 97 1011.0
20260510083516 53 0.0 1.7 0.00 0.36 0.00 97 1010.9
20260510082516 53 0.0 1.7 0.00 0.36 0.00 97 1010.9
20260510081516 53 248 0.9 1.7 0.00 0.36 0.00 97 1011.0
20260510080517 53 0.0 0.9 0.00 0.36 0.00 97 1011.0
20260510075518 53 248 0.9 2.6 0.00 0.36 0.00 97 1010.9
20260510074517 53 0.0 0.9 0.00 0.36 0.00 97 1010.7
20260510073516 52 0.0 0.9 0.00 0.36 0.00 97 1010.7
20260510072517 52 0.0 2.6 0.00 0.36 0.00 97 1010.7
20260510071536 52 0.0 0.9 0.00 0.36 0.00 97 1010.5
20260510070517 52 0.0 0.0 0.00 0.36 0.00 97 1010.5
20260510065518 52 0.0 1.7 0.00 0.36 0.00 97 1010.6
20260510064516 52 0.0 0.9 0.00 0.36 0.00 97 1010.5
20260510063536 52 0.0 0.9 0.00 0.36 0.00 97 1010.6
20260510062516 52 0.0 0.0 0.00 0.36 0.00 96 1010.5
20260510061516 52 0.0 0.0 0.00 0.36 0.00 96 1010.3
20260510060516 52 0.0 0.9 0.00 0.36 0.00 96 1010.2
20260510055520 52 0.0 0.9 0.00 0.36 0.00 96 1010.2
20260510054516 52 0.0 0.9 0.00 0.36 0.00 96 1010.2
20260510053517 53 0.0 0.9 0.00 0.36 0.00 96 1010.4
20260510052523 53 0.0 0.9 0.00 0.36 0.00 96 1010.7
20260510051516 53 225 0.9 1.7 0.00 0.36 0.00 96 1010.7
20260510050516 53 0.0 0.9 0.00 0.36 0.00 96 1010.6
20260510045518 53 0.0 0.9 0.00 0.36 0.00 96 1010.6
20260510044536 54 0.0 0.9 0.00 0.36 0.00 96 1010.5
20260510043521 54 0.0 0.0 0.00 0.36 0.00 96 1010.6
20260510042536 54 0.0 0.0 0.00 0.36 0.00 96 1010.8
20260510041522 54 0.0 0.9 0.00 0.36 0.00 96 1010.9
20260510040516 54 0.0 0.0 0.00 0.36 0.00 96 1010.8
20260510035517 54 0.0 0.9 0.00 0.36 0.36 96 1010.8
20260510034536 53 0.0 0.9 0.00 0.36 0.36 96 1010.6
20260510033516 53 0.0 0.0 0.00 0.36 0.36 96 1010.7
20260510032516 53 0.0 0.0 0.00 0.36 0.36 96 1010.6
20260510031519 53 0.0 0.0 0.00 0.36 0.36 96 1010.6
20260510030516 53 0.0 0.0 0.00 0.36 0.36 96 1010.5
20260510025520 53 0.0 0.0 0.00 0.36 0.36 96 1010.4
20260510024556 53 0.0 0.0 0.00 0.36 0.36 96 1010.6
20260510023516 53 0.0 0.0 0.00 0.36 0.36 96 1010.4
20260510022516 53 0.0 0.0 0.00 0.36 0.36 96 1010.4
20260510021516 53 0.0 0.0 0.00 0.36 0.36 96 1010.7
20260510020536 53 0.0 0.0 0.00 0.36 0.36 96 1010.9
20260510015519 53 0.0 0.0 0.00 0.36 0.36 96 1011.0
20260510014516 53 0.0 0.0 0.00 0.36 0.36 96 1011.0
20260510013516 53 0.0 0.0 0.00 0.36 0.36 96 1011.1
20260510012536 53 0.0 0.0 0.00 0.36 0.36 96 1010.9
20260510011536 53 0.0 0.0 0.00 0.36 0.36 96 1010.6
20260510010516 53 0.0 0.0 0.00 0.36 0.36 95 1010.3
20260510005538 53 0.0 0.0 0.00 0.36 0.36 95 1010.4
20260510004517 53 0.0 0.0 0.00 0.36 0.36 95 1010.4
20260510003516 53 0.0 0.9 0.00 0.36 0.36 95 1010.2
20260510002516 53 0.0 0.9 0.00 0.36 0.36 95 1010.2
20260510001515 53 0.0 0.9 0.00 0.36 0.36 95 1010.0
20260510000516 53 0.0 0.9 0.00 0.36 0.36 95 1010.2
20260509235519 53 0.0 0.9 0.00 0.36 0.36 95 1010.2
20260509234516 53 0.0 0.9 0.00 0.36 0.36 95 1010.1
20260509233517 53 0.0 2.6 0.01 0.36 0.36 95 1010.1
20260509232516 53 0.0 0.9 0.01 0.36 0.36 95 1010.2
20260509231516 53 248 0.9 5.2 0.02 0.36 0.36 95 1010.1
20260509230516 53 248 0.9 1.7 0.03 0.36 0.36 95 1010.1
20260509225522 53 225 0.9 2.6 0.05 0.36 0.36 96 1010.0